Weather History for Gulfport, MS

Change the Weather History Date:

Saturday, June 29, 2013

  Actual Average Record
Temperature  
Mean Temperature 83 °F -  
Max Temperature 91 °F 90 °F 99 °F (1969)
Min Temperature 75 °F 73 °F 65 °F (1974)
Cooling Degree Days 18    
Growing Degree Days 33 (Base 50)    
Moisture  
Dew Point 72 °F    
Average Humidity 69    
Maximum Humidity 84    
Minimum Humidity 55    
Precipitation  
Precipitation 0.00 in - - ()
Sea Level Pressure  
Sea Level Pressure 29.75 in    
Wind  
Wind Speed 4 mph (WNW)    
Max Wind Speed 13 mph    
Max Gust Speed 18 mph    
Visibility 10 miles    
Events      
Averages and records for this station are not official NWS values.
T = Trace of Precipitation, MM = Missing Value Source: NWS Daily Summary

Daily Weather History Graph

Daily Weather History Graph

Search for Another Location

Airport:

Trip Planner

Search our weather history database for the weather conditions in past years. The results will help you decide how hot, cold, wet, or windy it might be!

Date:

Astronomy

Jun. 29, 2013 Rise Set
Actual Time 5:57 AM CDT 8:02 PM CDT
Civil Twilight 5:29 AM CDT 8:29 PM CDT
Nautical Twilight 4:56 AM CDT 9:03 PM CDT
Astronomical Twilight 4:20 AM CDT 9:39 PM CDT
Moon 12:00 AM CDT (6/29) 12:37 PM CDT (6/29)
Length of Visible Light 15h 00m
Length of Day
14h 05m
Waning Gibbous, 55% of the Moon is Illuminated
Jun 29
Waning Gibbous
Jun 29
Last Quarter
Jul 8
New
Jul 15
First Quarter
Jul 22
Full

Hourly Weather History & Observations

Time (CDT) Temp. Heat Index Dew Point Humidity Pressure Visibility Wind Dir Wind Speed Gust Speed Precip Events Conditions
12:53 AM 82.0 °F 87.9 °F 73.9 °F 76% 29.80 in 10.0 mi West 4.6 mph - N/A   Partly Cloudy
1:53 AM 82.9 °F 90.8 °F 75.9 °F 79% 29.79 in 10.0 mi West 5.8 mph - N/A   Mostly Cloudy
2:53 AM 82.0 °F 86.7 °F 72.0 °F 71% 29.74 in 10.0 mi Calm Calm - N/A   Clear
3:53 AM 77.0 °F - 68.0 °F 74% 29.76 in 10.0 mi NNW 4.6 mph - 0.00 in   Clear
4:53 AM 75.9 °F - 66.9 °F 74% 29.76 in 10.0 mi Calm Calm - N/A   Clear
5:53 AM 75.9 °F - 68.0 °F 76% 29.78 in 10.0 mi Calm Calm - N/A   Mostly Cloudy
6:53 AM 77.0 °F - 68.0 °F 74% 29.78 in 10.0 mi Calm Calm - N/A   Partly Cloudy
7:53 AM 79.0 °F - 70.0 °F 74% 29.78 in 10.0 mi WNW 5.8 mph - N/A   Clear
8:53 AM 78.1 °F - 70.0 °F 76% 29.81 in 10.0 mi WNW 5.8 mph - 0.00 in   Overcast
9:53 AM 79.0 °F - 69.1 °F 72% 29.81 in 10.0 mi West 6.9 mph - N/A   Scattered Clouds
11:53 AM 87.1 °F 92.8 °F 71.1 °F 59% 29.77 in 10.0 mi WNW 12.7 mph 18.4 mph N/A   Unknown
1:53 PM 89.1 °F 98.0 °F 73.9 °F 61% 29.75 in 10.0 mi NW 10.4 mph - N/A   Unknown
2:53 PM 91.0 °F 99.3 °F 73.0 °F 55% 29.74 in 10.0 mi West 9.2 mph - N/A   Partly Cloudy
3:55 PM 91.4 °F 100.1 °F 73.4 °F 55% 29.72 in 10.0 mi Variable 5.8 mph - N/A   Partly Cloudy
4:53 PM 91.0 °F 99.3 °F 73.0 °F 55% 29.69 in 10.0 mi WSW 3.5 mph - N/A   Partly Cloudy
5:53 PM 90.0 °F 99.0 °F 73.9 °F 59% 29.68 in 10.0 mi WSW 8.1 mph - N/A   Clear
6:53 PM 88.0 °F 96.5 °F 73.9 °F 63% 29.69 in 10.0 mi West 5.8 mph - N/A   Clear
7:53 PM 84.9 °F 91.4 °F 73.0 °F 67% 29.71 in 10.0 mi West 5.8 mph - N/A   Clear
8:53 PM 82.9 °F 89.4 °F 73.9 °F 74% 29.72 in 10.0 mi WSW 3.5 mph - N/A   Partly Cloudy
9:53 PM 82.0 °F 87.9 °F 73.9 °F 76% 29.74 in 10.0 mi North 6.9 mph - N/A   Scattered Clouds
10:53 PM 81.0 °F 85.2 °F 72.0 °F 74% 29.74 in 10.0 mi Calm Calm - N/A   Clear
11:53 PM 79.0 °F - 73.9 °F 84% 29.75 in 10.0 mi Calm Calm - N/A   Overcast